Location: Bear Branch Nature Center
(39.6445°N, 76.9901°W)
Time: 16:29:41
(UTC-04:00)

Daily predictions for brighter satellites

Satellite Brightness Start Highest point End
(mag) Time Altitude Azimuth Time Altitude Azimuth Time Altitude Azimuth
ATLAS CENTAUR R/B 4.0 20:39:33 10° SSW 20:44:58 54° ESE 21:00:24 10° NE
Cosmos 1674 Rocket 4.0 20:50:53 10° SSW 20:55:19 72° W 20:59:47 10° N
Cosmos 1975 Rocket 3.9 20:53:11 10° SSE 20:56:58 31° E 21:00:46 10° NNE
Okean 3 3.8 20:52:42 10° SSW 20:56:58 74° W 21:01:16 10° N
Okean 1 Rocket 3.1 20:55:03 10° N 20:59:23 67° E 21:03:41 10° SSE
YAOGAN 6 3.0 20:56:47 10° S 21:00:28 69° W 21:04:08 10° NNW
Shenzhou-11 Module 3.0 20:57:39 10° WNW 21:00:30 43° N 21:03:22 10° ENE
Cosmos 1242 Rocket 3.4 21:02:31 10° N 21:05:52 33° ENE 21:09:09 10° SE
Thor Agena Rocket 3.9 21:05:50 10° N 21:11:05 72° WNW 21:16:16 10° SSW
BREEZE-M R/B 3.7 21:06:05 10° WSW 21:11:07 51° NNW 21:14:00 10° NE
Cosmos 2084 3.4 21:10:57 10° SSW 21:15:18 67° ESE 21:19:24 10° NE
Atlas Centaur 2 2.9 21:14:34 10° SW 21:17:14 17° SSW 21:19:24 11° SSE
Cosmos 2233 Rocket 4.0 21:13:41 10° S 21:19:48 75° E 21:26:00 10° N
Cosmos 1975 2.8 21:18:13 10° N 21:22:16 87° E 21:26:17 10° S
SJ 16-02 3.5 21:23:27 10° NNE 21:25:46 14° ENE 21:28:05 10° E
Meteor 1-19 Rocket 4.3 21:21:21 10° S 21:27:12 68° E 21:33:04 10° NNE
Resurs 01 Rocket 2.2 21:23:11 10° S 21:27:29 56° W 21:31:50 10° NNW
Cosmos 2360 Rocket 3.4 21:23:25 10° N 21:28:17 29° ENE 21:32:17 14° ESE
Spot 2 Rocket 3.6 21:23:16 10° S 21:28:19 81° WSW 21:33:23 10° NNW
deb Kosmos-1763 4.3 21:26:55 10° SSW 21:30:36 72° WNW 21:34:18 10° NNE
Cosmos 1980 Rocket 3.6 21:25:51 10° NW 21:30:58 36° WSW 21:36:06 10° S
Cosmos 468 Rocket 4.2 21:26:52 10° SSW 21:32:09 76° WNW 21:37:24 10° NNE
ATLAS CENTAUR R/B 3.7 21:29:56 10° WNW 21:33:34 23° WSW 21:37:18 10° SSW
ERS-2 3.7 21:31:07 10° SSW 21:34:29 34° W 21:37:53 10° NNW
Cosmos 1937 Rocket 3.5 21:29:29 10° NNW 21:34:36 64° ENE 21:38:38 16° SSE
Cosmos 2298 Rocket 4.4 21:29:57 10° N 21:35:07 51° ENE 21:38:58 17° SE
BREEZE-M DEB (TANK) 2.4 21:32:37 10° WNW 21:35:09 31° SW 21:36:08 20° S
Cosmos 1666 2.9 21:31:41 10° N 21:35:34 76° W 21:39:24 10° S
Helios 1B rocket 4.4 21:35:37 10° ENE 21:37:27 13° E 21:37:37 13° E
Cosmos 1763 Rocket 3.5 21:32:59 10° SSW 21:38:17 77° ESE 21:43:35 10° NNE
Meteor 2-9 Rocket 4.2 21:36:44 10° N 21:42:01 59° ENE 21:46:08 17° SSE
Cosmos 841 Rocket 3.5 21:38:45 10° S 21:43:52 59° ESE 21:49:03 10° NNE
EPKM 4.5 21:46:42 10° SW 21:47:25 10° SSW 21:48:02 10° SSW
USA 32 4.2 21:42:20 10° N 21:47:30 56° E 21:51:10 19° SSE
Cosmos 1743 3.3 21:44:20 10° NNW 21:48:05 56° W 21:51:39 11° S
MetOp-A 4.2 21:44:35 17° SSE 21:48:48 70° ENE 21:54:08 10° N
SPOT 5 3.9 21:49:27 19° ESE 21:51:27 26° ENE 21:55:14 10° N
Iridium 2 3.8 21:49:34 10° S 21:53:22 75° W 21:57:12 10° N
Cosmos 2333 Rocket 4.3 21:51:08 10° NNE 21:53:56 14° NE 21:56:44 10° ENE
Terra 3.7 21:55:07 14° E 21:56:59 17° ENE 21:59:58 10° NNE
USA 234 3.5 21:50:35 10° NE 21:57:09 75° NW 22:03:41 10° SW
COSMOS 2428 4.3 21:53:08 10° N 21:57:27 22° NE 22:00:36 14° E
Centaur D-1A AC-31 2.9 21:56:46 10° WSW 21:59:53 16° SSW 22:00:42 15° S
Cosmos 1513 Rocket 4.5 21:59:24 16° S 22:04:18 63° E 22:10:23 10° NNE
Cosmos 1833 4.1 21:58:36 10° SSW 22:04:19 72° ESE 22:10:00 10° NNE
Meteor 2-4 Rocket 3.7 21:59:23 10° S 22:04:49 84° W 22:10:25 10° N
Lacrosse 5 rocket 2.5 22:01:21 10° NNW 22:05:20 35° NE 22:07:25 21° E
Cosmos 2034 Rocket 4.1 22:03:34 21° SSE 22:07:37 53° E 22:13:34 10° NNE
ERS-1 Rocket 2.9 22:07:45 26° SSE 22:10:33 73° ENE 22:15:35 10° N
Cosmos 1464 Rocket 4.0 22:05:11 12° S 22:11:06 80° E 22:17:30 10° N
CSL-04 DEB 4.4 22:12:19 30° S 22:14:22 85° W 22:18:29 10° NNW
ISS -0.6 22:13:05 10° NW 22:14:52 14° NNW 22:16:41 10° NNE
Cosmos 1025 Rocket 3.9 22:14:39 29° ESE 22:15:08 30° E 22:18:58 10° NNE
USA 245 3.1 22:16:24 44° SSE 22:17:25 75° ENE 22:21:41 10° N
Cosmos 1356 3.5 22:17:03 29° SSW 22:18:40 75° W 22:22:09 10° N
Cosmos 1515 3.6 22:17:00 32° S 22:18:40 86° E 22:22:31 10° N
SPOT 1/Viking Rocket 3.8 22:16:50 31° SE 22:19:02 52° ENE 22:24:02 10° N
ARGOS 3.5 22:15:18 18° S 22:19:13 61° W 22:24:36 10° NNW
Cosmos 2322 4.0 22:15:35 10° NNW 22:21:13 56° ENE 22:23:44 32° SE
H-2A R/B 2.1 22:19:42 25° S 22:22:37 69° WSW 22:27:38 10° NNW
Cosmos 2322 Rocket 3.0 22:17:19 10° NW 22:22:38 44° WSW 22:26:19 19° S
Tiangong 2 2.1 22:20:48 10° WNW 22:23:51 44° N 22:25:10 27° NE
Cosmos 1455 Rocket 3.5 22:20:36 10° NNW 22:24:54 58° W 22:27:13 26° SSW
CENTAUR R/B 2.8 22:19:39 10° SW 22:25:32 69° NW 22:32:23 10° NNE
Cosmos 2237 Rocket 4.4 22:23:17 10° NNE 22:26:05 14° NE 22:28:53 10° ENE
Cosmos 1340 Rocket 3.7 22:25:14 14° SSW 22:28:34 47° WNW 22:32:32 10° N
SL-16 R/B 3.4 22:26:55 10° NW 22:32:00 35° WSW 22:35:44 17° SSW
Cosmos 1125 Rocket 3.8 22:26:55 10° N 22:32:03 51° ENE 22:33:42 37° ESE
Meteor 1-29 4.1 22:29:05 10° NNE 22:31:30 31° ENE 22:31:30 31° ENE
Shenzhou-11 Module 2.6 22:33:43 10° WNW 22:36:03 50° W 22:36:03 50° W
DMSP B5D2-2 4.1 22:35:04 10° N 22:40:22 82° WNW 22:43:34 25° SSW
Helios 1A 2.9 22:41:57 52° S 22:42:53 78° WSW 22:47:04 10° NNW
Aureole 2 Rocket 3.7 22:40:46 10° NW 22:43:07 25° W 22:43:07 25° W
Cosmos 836 Rocket 4.4 22:43:05 26° SSW 22:46:03 86° WNW 22:51:18 10° NNE
Cosmos 2219 3.5 22:48:54 43° SE 22:49:43 46° ESE 22:55:11 10° NE
Cosmos 2237 4.2 22:45:21 10° NNW 22:51:06 86° WSW 22:52:57 45° SSE
Okean 2 3.4 22:50:55 56° SSW 22:51:43 79° W 22:55:55 10° N
Meteor 1-15 Rocket 4.5 22:49:23 10° NNW 22:55:03 65° W 22:57:22 35° SSW
CZ-4C R/B 3.2 22:52:36 10° NNW 22:59:46 61° NE 23:03:19 34° ESE
Nimbus 7 Rocket 4.4 22:54:00 10° NNE 22:59:50 60° ESE 23:01:13 48° SSE
Cosmos 1356 Rocket 3.6 23:03:27 61° SW 23:04:03 72° W 23:08:22 10° N
SJ 16-02 1.7 23:00:23 10° NNW 23:04:44 56° WSW 23:05:18 51° SW
Okean 1-7 Rocket 3.7 23:05:54 63° E 23:05:54 63° E 23:10:22 10° NNE
Cosmos 1544 3.8 23:02:15 10° N 23:05:13 47° NE 23:05:13 47° NE
COSMOS 2455 4.1 23:07:46 24° E 23:07:46 24° E 23:11:26 10° NE
Cosmos 2360 Rocket 3.1 23:07:07 10° NW 23:12:21 40° WSW 23:14:04 32° SW
Helios 1B rocket 3.2 23:09:00 10° N 23:13:00 48° WNW 23:13:58 39° WSW
Cosmos 2228 4.2 23:09:36 10° NNE 23:12:59 32° ENE 23:12:59 32° ENE
CZ-2C R/B 2.9 23:08:58 10° NNE 23:14:27 52° E 23:14:47 51° ESE
Cosmos 2333 4.1 23:09:11 10° NNW 23:14:53 89° WSW 23:15:58 60° SSE
Landsat 7 4.3 23:14:40 46° SW 23:15:31 53° W 23:20:11 10° NNW
Cosmos 2219 Rocket 2.3 23:11:07 10° NNW 23:16:41 62° ENE 23:17:36 54° ESE
Cosmos 1726 Rocket 4.1 23:13:24 10° N 23:17:20 48° ENE 23:17:20 48° ENE
Cosmos 1092 Rocket 4.0 23:12:31 10° N 23:18:55 84° W 23:20:43 50° S
Nadezhda 4 Rocket 4.5 23:15:17 10° NNW 23:21:24 54° W 23:23:53 35° SSW
IGS 5A 3.8 23:21:30 55° W 23:21:30 55° W 23:25:33 10° NNW
SPOT 5 4.2 23:28:41 25° WSW 23:29:27 26° W 23:33:16 10° NW
Cosmos 1805 4.5 23:28:18 10° N 23:31:01 35° NE 23:31:01 35° NE
Cosmos 2058 Rocket 3.7 23:27:42 10° N 23:31:33 46° NE 23:31:33 46° NE
Iridium 4 Rocket 4.4 23:33:13 39° E 23:33:23 39° E 23:38:47 10° NNE
Terra 2.2 23:33:59 51° WSW 23:34:16 52° W 23:38:56 10° NNW
Cosmos 2333 Rocket 2.0 23:33:21 10° NNW 23:39:06 83° ENE 23:39:38 73° SE
CZ-2C R/B 3.2 23:41:20 61° SW 23:41:54 66° W 23:47:29 10° NNW
COSMOS 2428 2.9 23:36:31 10° NNW 23:42:03 57° WSW 23:42:37 55° SW
SL-16 R/B 3.9 23:38:50 10° N 23:43:09 22° NE 23:44:52 19° ENE
Lacrosse 5 rocket 3.1 23:40:48 10° WNW 23:43:05 23° W 23:43:05 23° W
NOSS 0 Rocket 3.9 23:39:38 10° NNW 23:45:54 75° ENE 23:46:46 64° ESE
ALOS 2 4.4 23:46:19 22° ENE 23:46:19 22° ENE 23:49:20 10° NNE
Cosmos 2026 Rocket 3.9 23:42:17 10° N 23:48:28 78° W 23:49:21 65° SSW
Cosmos 2279 Rocket 3.8 23:50:12 69° S 23:51:01 85° E 23:57:16 10° N
Cosmos 1655 Rocket 3.9 23:45:54 10° N 23:52:18 74° E 23:53:03 66° SE
ISS -0.4 23:51:43 10° N 23:52:30 11° N 23:53:16 10° NNE
Cosmos 1980 3.7 23:47:32 10° NNW 23:53:10 65° ENE 23:53:30 63° E
Cosmos 1953 4.1 23:49:50 10° NNE 23:52:04 24° NE 23:52:04 24° NE
